CZ-4 DEB

Satellite information

Favourite Embed

Satellite Type and Status

DEBRISIN ORBIT

Key statistics

Satellite CZ-4 DEB at a glance.

Uptime

12789

Days in orbit

Revolutions

≈ 14.2

Per day

Orbit

SSO

Sun Synchronous Orbit

Inclination

98.7

Latest

Satellite identification and parameters

Extended collection of information and parameters for CZ-4 DEB.

Object identification

Identified? True

Debris? True

Object name: CZ-4 DEB

International designator: 1990-081DK

Object number (NORAD): 37623

Object ID (CCSDS): 37623

Country: PEOPLES REPUBLIC OF CHINA (PRC)

Current information (Y/N): Y

RCS size: SMALL

Orbital parameters

Period: 101.47 minutes

Inclination: 98.7108 deg

SMA: 7206.422 km

Apoapsis: 842.925 km

Periapsis: 813.649 km

RAAN: 230.9021 deg

Eccentricy: 0.00203125

Argument of periapsis: 252.7282 deg

Mean anomaly: 107.1671 deg

Mean motion: 14.19133411 rev/day

Mean motion (dot): 0.00001082 rev/day2

B* drag term: 0.00053683922 1/REarth

Two-line elements (TLE)

Creation date: Sept. 1, 2025, 10:16 a.m.

Reference frame: TEME

Reference center: EARTH

Epoch: Sept. 1, 2025, 4:28 a.m. UTC

TLE line 0: 0 CZ-4 DEB

TLE line 1: 1 37623U 90081DK 25244.18614418 .00001082 00000-0 53684-3 0 9999

TLE line 2: 2 37623 98.7108 230.9021 0020312 252.7282 107.1671 14.19133411626228

Live tracking on map

Real-time ground track for satellite CZ-4 DEB.

In-orbit conjunctions

A list of the most updated potential collisions computed for object CZ-4 DEB.

Target Orbit TCA Probability of collision Miss distance Type
DODECAPOLE 2 DEB SSO 2025-07-14 04:57:04 0.0002028015 289.0 (m) DEBRIS
CZ-4 DEB SSO 2025-07-04 12:09:28 0.0006215353 87.0 (m) DEBRIS
CZ-6A DEB LEO 2024-12-01 01:46:44 0.0001210919 736.0 (m) DEBRIS
SL-3 R/B LEO 2024-11-12 18:29:51 0.0002674438 136.0 (m) ROCKET BODY
CZ-6A DEB SSO 2024-11-11 12:40:17 0.001771383 209.0 (m) DEBRIS

Associated space launch

Chinese polar orbiting meteorological satellite

CZ-4 DEB was lifted into orbit during the mission ‘Long March 4A | Feng Yun 1B’, on board a Long March 4A space rocket.

The launch took place on Sept. 3, 1990, 12:53 a.m. from Launch Complex 7.

For more information about the launch, click the button.

Launch to space Long March 4A | Feng Yun 1B
Long March 4A | Feng Yun 1B

Agency: N/A

Status: Launch Successful

Launch date: Sept. 3, 1990, 12:53 a.m. UTC

Rocket: Long March 4A

Launch pad: Launch Complex 7

Location: Taiyuan Satellite Launch Center, People's Republic of China

...

Latest news about this satellite

There are no fresh news available about this satellite. Check back as we update our databases every day.


Newsletter sign-up

Weekly statistics, charts and insights to help you stay on top of the space industry.